Simultaneous Nadir Overpasses (SNOs) Predictions

Prediction of SNOs between AQUA and METOP-A Satellite Orbit:

Table of predicted SNOs for the next 14.0 days since TLE Epoch: 2/25/2017
Index Date (AQUA) Time (AQUA) Lat,Lon (AQUA) SZA (AQUA ) Date (METOP-A) Time (METOP-A) Lat,Lon (METOP-A) SZA (METOP-A ) Distance(km) Time Diff (sec)
1 02/27/2017 20:21:25 73.82,-131.15 81.95 02/27/2017 20:20:53 73.82,-131.25 81.96 3.18 32
2 02/27/2017 21:10:52 -73.89, 36.33 97.98 02/27/2017 21:11:33 -73.89, 36.27 97.99 1.75 41
3 03/02/2017 15:55:42 73.86, -64.81 80.92 03/02/2017 15:55:15 73.85, -64.77 80.91 2.10 27
4 03/02/2017 16:45:09 -73.93, 102.68 99.02 03/02/2017 16:45:55 -73.93, 102.76 99.03 2.46 46
5 03/05/2017 10:40:17 -73.21,-164.61 100.86 03/05/2017 10:39:11 -73.14,-167.32 100.80 87.68 66
6 03/05/2017 11:29:57 73.86, 1.63 79.84 03/05/2017 11:29:36 73.87, 1.70 79.85 2.29 21
7 03/05/2017 12:19:24 -73.93, 169.12 100.11 03/05/2017 12:20:17 -73.91, 169.12 100.14 1.95 53
8 03/08/2017 06:14:38 -73.48, -98.72 101.68 03/08/2017 06:13:28 -73.42,-100.29 101.65 50.19 70
9 03/08/2017 07:04:13 73.88, 68.04 78.75 03/08/2017 07:03:59 73.85, 68.04 78.72 3.42 14
10 03/08/2017 07:53:40 -73.94,-124.45 101.20 03/08/2017 07:54:39 -73.94,-124.40 101.21 1.54 59
11 03/11/2017 01:48:58 -73.70, -32.77 102.54 03/11/2017 01:47:46 -73.64, -33.37 102.56 19.97 72
12 03/11/2017 02:38:28 73.85, 134.55 77.61 03/11/2017 02:38:21 73.87, 134.50 77.64 2.67 7




NCC Satellite Simultaneous Nadir Overpasses (SNOs) Prediction Service
